TimeEDT,TemperatureF,Dew PointF,Humidity,Sea Level PressureIn,VisibilityMPH,Wind Direction,Wind SpeedMPH,Gust SpeedMPH,PrecipitationIn,Events,Conditions,WindDirDegrees,DateUTC
12:39 AM,69.8,66.2,88,30.01,10.0,ENE,5.8,-,N/A,,Overcast,70,2013-07-13 04:39:00
12:56 AM,69.1,66.9,93,29.98,10.0,ENE,8.1,-,0.00,Rain,Light Rain,70,2013-07-13 04:56:00
1:43 AM,69.8,68.0,94,30.00,10.0,ENE,10.4,-,0.00,,Mostly Cloudy,70,2013-07-13 05:43:00
1:56 AM,69.1,68.0,96,29.98,10.0,ENE,9.2,-,0.00,,Mostly Cloudy,70,2013-07-13 05:56:00
2:42 AM,69.8,69.8,100,30.01,10.0,NE,6.9,-,N/A,,Overcast,50,2013-07-13 06:42:00
2:56 AM,69.1,68.0,96,29.98,10.0,ENE,9.2,-,N/A,,Overcast,60,2013-07-13 06:56:00
3:41 AM,69.8,68.0,94,30.01,10.0,East,9.2,-,N/A,Thunderstorm,Overcast,80,2013-07-13 07:41:00
3:49 AM,69.8,68.0,94,30.01,10.0,ENE,8.1,-,N/A,,Overcast,70,2013-07-13 07:49:00
3:56 AM,69.1,68.0,96,29.99,10.0,East,5.8,-,N/A,Thunderstorm,Overcast,80,2013-07-13 07:56:00
4:16 AM,69.8,68.0,94,30.01,10.0,ENE,8.1,-,N/A,,Overcast,60,2013-07-13 08:16:00
4:35 AM,69.8,68.0,94,30.01,10.0,ENE,6.9,-,N/A,Thunderstorm,Overcast,70,2013-07-13 08:35:00
4:56 AM,69.1,68.0,96,29.99,10.0,ENE,6.9,-,N/A,Thunderstorm,Overcast,60,2013-07-13 08:56:00
5:10 AM,69.8,68.0,94,30.02,10.0,ENE,6.9,-,N/A,,Overcast,60,2013-07-13 09:10:00
5:52 AM,69.8,66.2,88,30.03,10.0,North,6.9,-,N/A,Thunderstorm,Overcast,360,2013-07-13 09:52:00
5:56 AM,69.1,66.9,93,30.01,10.0,North,8.1,-,N/A,Thunderstorm,Overcast,360,2013-07-13 09:56:00
6:25 AM,68.0,66.2,94,30.03,10.0,NNE,8.1,-,N/A,,Overcast,30,2013-07-13 10:25:00
6:56 AM,68.0,66.0,93,30.01,10.0,ENE,9.2,-,N/A,,Scattered Clouds,60,2013-07-13 10:56:00
7:47 AM,69.8,66.2,88,30.05,10.0,NNE,5.8,-,N/A,,Mostly Cloudy,20,2013-07-13 11:47:00
7:56 AM,69.1,66.9,93,30.03,10.0,NE,9.2,-,N/A,,Overcast,40,2013-07-13 11:56:00
8:14 AM,69.8,66.2,88,30.05,10.0,NNE,5.8,-,N/A,,Overcast,30,2013-07-13 12:14:00
8:26 AM,69.8,66.2,88,30.06,10.0,NE,6.9,-,N/A,,Overcast,40,2013-07-13 12:26:00
8:56 AM,70.0,68.0,93,30.06,10.0,NE,6.9,-,N/A,,Overcast,40,2013-07-13 12:56:00
9:56 AM,72.0,68.0,87,30.07,10.0,East,10.4,-,N/A,,Overcast,80,2013-07-13 13:56:00
10:05 AM,73.4,69.8,88,30.09,10.0,ENE,8.1,-,N/A,,Overcast,60,2013-07-13 14:05:00
10:56 AM,73.9,69.1,85,30.07,10.0,ENE,9.2,-,N/A,,Overcast,60,2013-07-13 14:56:00
11:20 AM,75.2,69.8,83,30.10,10.0,ENE,9.2,-,N/A,,Mostly Cloudy,60,2013-07-13 15:20:00
11:56 AM,73.9,69.1,85,30.08,10.0,ENE,8.1,-,N/A,,Overcast,60,2013-07-13 15:56:00
12:52 PM,78.8,69.8,74,30.10,10.0,NE,10.4,-,N/A,,Scattered Clouds,40,2013-07-13 16:52:00
12:56 PM,77.0,70.0,79,30.08,10.0,ENE,11.5,-,N/A,,Scattered Clouds,60,2013-07-13 16:56:00
1:56 PM,80.1,70.0,71,30.05,10.0,NE,10.4,-,N/A,,Partly Cloudy,50,2013-07-13 17:56:00
2:56 PM,75.9,70.0,82,30.06,9.0,East,9.2,-,0.01,Rain,Rain,80,2013-07-13 18:56:00
3:10 PM,75.2,69.8,83,30.08,10.0,East,6.9,-,0.01,Rain-Thunderstorm,Light Rain,90,2013-07-13 19:10:00
3:25 PM,75.2,71.6,89,30.08,8.0,ENE,9.2,-,0.02,Rain,Light Rain,60,2013-07-13 19:25:00
3:56 PM,77.0,70.0,79,30.05,10.0,ENE,8.1,-,0.02,,Clear,60,2013-07-13 19:56:00
4:56 PM,79.0,70.0,74,30.03,10.0,ENE,9.2,-,N/A,,Partly Cloudy,60,2013-07-13 20:56:00
5:56 PM,78.1,70.0,76,30.03,10.0,ENE,11.5,-,N/A,,Clear,60,2013-07-13 21:56:00
6:56 PM,77.0,70.0,79,30.04,10.0,ENE,10.4,-,N/A,,Mostly Cloudy,60,2013-07-13 22:56:00
7:56 PM,77.0,70.0,79,30.05,10.0,ENE,4.6,-,N/A,,Scattered Clouds,60,2013-07-13 23:56:00
8:56 PM,75.0,71.1,87,30.06,10.0,NE,3.5,-,N/A,,Mostly Cloudy,50,2013-07-14 00:56:00
9:56 PM,75.0,71.1,87,30.07,10.0,NE,4.6,-,N/A,,Mostly Cloudy,40,2013-07-14 01:56:00
10:56 PM,73.9,71.1,91,30.06,10.0,Calm,Calm,-,N/A,,Partly Cloudy,0,2013-07-14 02:56:00
11:45 PM,73.4,71.6,94,30.10,10.0,Calm,Calm,-,N/A,,Overcast,0,2013-07-14 03:45:00
11:56 PM,73.9,71.1,91,30.08,10.0,NE,4.6,-,N/A,,Overcast,50,2013-07-14 03:56:00